Track EUTE HOT BIRD 13B (HB 8) now! EUTE HOT BIRD 13B (HB 8) is classified as:
1 29270U 06032A 25023.14771736 .00000177 00000-0 00000+0 0 9993 2 29270 0.3400 86.7107 0004444 238.7772 243.5126 1.00273362 67741